Time,TemperatureF,DewpointF,PressureIn,WindDirection,WindDirectionDegrees,WindSpeedMPH,WindSpeedGustMPH,Humidity,HourlyPrecipIn,Conditions,Clouds,dailyrainin,SoftwareType,DateUTC
2013-01-03 00:24:00,23.6,8.0,30.10,WNW,284,11.0,12.0,51,0.00,,,0.00,weatherlink.com 1.10,2013-01-03 05:24:00,
2013-01-03 00:39:00,23.2,5.0,30.10,West,273,11.0,14.0,46,0.00,,,0.00,weatherlink.com 1.10,2013-01-03 05:39:00,
2013-01-03 00:55:00,22.9,3.0,30.10,WNW,283,2.0,12.0,43,0.00,,,0.00,weatherlink.com 1.10,2013-01-03 05:55:00,
2013-01-03 01:09:00,22.6,2.0,30.10,WNW,290,4.0,10.0,41,0.00,,,0.00,weatherlink.com 1.10,2013-01-03 06:09:00,
2013-01-03 01:24:00,22.1,1.0,30.10,NW,308,0.0,17.0,40,0.00,,,0.00,weatherlink.com 1.10,2013-01-03 06:24:00,
2013-01-03 01:39:00,21.7,1.0,30.10,NW,323,5.0,11.0,40,0.00,,,0.00,weatherlink.com 1.10,2013-01-03 06:39:00,
2013-01-03 01:54:00,21.3,1.0,30.11,North,1,1.0,11.0,41,0.00,,,0.00,weatherlink.com 1.10,2013-01-03 06:54:00,
2013-01-03 02:09:00,21.0,1.0,30.11,North,8,3.0,12.0,41,0.00,,,0.00,weatherlink.com 1.10,2013-01-03 07:09:00,
2013-01-03 02:24:00,20.5,1.0,30.11,West,269,5.0,12.0,42,0.00,,,0.00,weatherlink.com 1.10,2013-01-03 07:24:00,
2013-01-03 02:39:00,20.1,1.0,30.11,North,354,1.0,6.0,44,0.00,,,0.00,weatherlink.com 1.10,2013-01-03 07:39:00,
2013-01-03 02:55:00,19.7,1.0,30.10,West,262,5.0,10.0,45,0.00,,,0.00,weatherlink.com 1.10,2013-01-03 07:55:00,
2013-01-03 03:10:00,19.2,2.0,30.11,West,271,0.0,8.0,47,0.00,,,0.00,weatherlink.com 1.10,2013-01-03 08:10:00,
2013-01-03 03:25:00,18.4,3.0,30.11,NW,307,1.0,7.0,50,0.00,,,0.00,weatherlink.com 1.10,2013-01-03 08:25:00,
2013-01-03 03:40:00,17.8,2.0,30.11,WNW,301,1.0,10.0,49,0.00,,,0.00,weatherlink.com 1.10,2013-01-03 08:40:00,
2013-01-03 03:55:00,17.3,1.0,30.11,NW,310,1.0,7.0,48,0.00,,,0.00,weatherlink.com 1.10,2013-01-03 08:55:00,
2013-01-03 04:10:00,16.8,0.0,30.11,North,4,4.0,5.0,48,0.00,,,0.00,weatherlink.com 1.10,2013-01-03 09:10:00,
2013-01-03 04:25:00,16.4,0.0,30.11,West,280,2.0,6.0,49,0.00,,,0.00,weatherlink.com 1.10,2013-01-03 09:25:00,
2013-01-03 04:40:00,15.9,1.0,30.12,West,264,0.0,3.0,51,0.00,,,0.00,weatherlink.com 1.10,2013-01-03 09:40:00,
2013-01-03 04:55:00,15.5,1.0,30.12,WNW,295,0.0,4.0,52,0.00,,,0.00,weatherlink.com 1.10,2013-01-03 09:55:00,
2013-01-03 05:10:00,15.0,0.0,30.12,NW,309,2.0,5.0,51,0.00,,,0.00,weatherlink.com 1.10,2013-01-03 10:10:00,
2013-01-03 05:25:00,14.7,-2.0,30.13,West,271,3.0,8.0,48,0.00,,,0.00,weatherlink.com 1.10,2013-01-03 10:25:00,
2013-01-03 05:40:00,14.4,-2.0,30.13,WNW,297,2.0,6.0,48,0.00,,,0.00,weatherlink.com 1.10,2013-01-03 10:40:00,
2013-01-03 05:55:00,14.1,-2.0,30.12,ESE,108,1.0,7.0,48,0.00,,,0.00,weatherlink.com 1.10,2013-01-03 10:55:00,
2013-01-03 06:10:00,13.9,-3.0,30.13,West,280,6.0,8.0,48,0.00,,,0.00,weatherlink.com 1.10,2013-01-03 11:10:00,
2013-01-03 06:25:00,13.6,-3.0,30.13,West,264,4.0,5.0,48,0.00,,,0.00,weatherlink.com 1.10,2013-01-03 11:25:00,
2013-01-03 06:40:00,13.2,-3.0,30.13,NW,311,0.0,6.0,48,0.00,,,0.00,weatherlink.com 1.10,2013-01-03 11:40:00,
2013-01-03 06:55:00,12.9,-4.0,30.15,West,281,3.0,5.0,48,0.00,,,0.00,weatherlink.com 1.10,2013-01-03 11:55:00,
2013-01-03 07:10:00,12.6,-3.0,30.15,WNW,297,3.0,4.0,49,0.00,,,0.00,weatherlink.com 1.10,2013-01-03 12:10:00,
2013-01-03 07:26:00,12.2,-3.0,30.15,WSW,243,2.0,3.0,50,0.00,,,0.00,weatherlink.com 1.10,2013-01-03 12:26:00,
2013-01-03 07:41:00,11.9,-2.0,30.15,West,269,1.0,1.0,53,0.00,,,0.00,weatherlink.com 1.10,2013-01-03 12:41:00,
2013-01-03 07:56:00,11.7,-3.0,30.15,West,266,2.0,4.0,52,0.00,,,0.00,weatherlink.com 1.10,2013-01-03 12:56:00,
2013-01-03 08:11:00,11.7,-4.0,30.15,West,273,1.0,4.0,50,0.00,,,0.00,weatherlink.com 1.10,2013-01-03 13:11:00,
2013-01-03 08:26:00,11.7,-3.0,30.15,West,275,0.0,1.0,51,0.00,,,0.00,weatherlink.com 1.10,2013-01-03 13:26:00,
2013-01-03 08:41:00,12.4,-3.0,30.15,WNW,297,4.0,4.0,50,0.00,,,0.00,weatherlink.com 1.10,2013-01-03 13:41:00,
2013-01-03 08:56:00,13.0,-4.0,30.15,West,278,0.0,6.0,47,0.00,,,0.00,weatherlink.com 1.10,2013-01-03 13:56:00,
2013-01-03 09:16:00,13.1,-4.0,30.14,West,270,2.0,5.0,47,0.00,,,0.00,weatherlink.com 1.10,2013-01-03 14:16:00,
2013-01-03 09:27:00,13.4,-4.0,30.14,WNW,297,0.0,5.0,46,0.00,,,0.00,weatherlink.com 1.10,2013-01-03 14:27:00,
2013-01-03 09:42:00,14.0,-3.0,30.14,NW,305,2.0,6.0,46,0.00,,,0.00,weatherlink.com 1.10,2013-01-03 14:42:00,
2013-01-03 09:57:00,14.8,-3.0,30.15,West,277,2.0,4.0,46,0.00,,,0.00,weatherlink.com 1.10,2013-01-03 14:57:00,
2013-01-03 10:12:00,15.5,-3.0,30.15,West,264,6.0,7.0,44,0.00,,,0.00,weatherlink.com 1.10,2013-01-03 15:12:00,
2013-01-03 10:27:00,16.3,-3.0,30.14,WNW,303,3.0,8.0,43,0.00,,,0.00,weatherlink.com 1.10,2013-01-03 15:27:00,
2013-01-03 10:42:00,16.9,-3.0,30.14,WNW,287,5.0,7.0,42,0.00,,,0.00,weatherlink.com 1.10,2013-01-03 15:42:00,
2013-01-03 10:57:00,17.5,-2.0,30.13,West,280,2.0,9.0,42,0.00,,,0.00,weatherlink.com 1.10,2013-01-03 15:57:00,
2013-01-03 11:12:00,18.2,-2.0,30.12,West,273,0.0,8.0,42,0.00,,,0.00,weatherlink.com 1.10,2013-01-03 16:12:00,
2013-01-03 11:27:00,19.3,0.0,30.11,NNW,345,2.0,9.0,43,0.00,,,0.00,weatherlink.com 1.10,2013-01-03 16:27:00,
2013-01-03 11:42:00,20.4,2.0,30.10,West,281,6.0,9.0,44,0.00,,,0.00,weatherlink.com 1.10,2013-01-03 16:42:00,
2013-01-03 11:58:00,21.6,3.0,30.09,SSW,205,0.0,8.0,45,0.00,,,0.00,weatherlink.com 1.10,2013-01-03 16:58:00,
2013-01-03 12:13:00,22.5,4.0,30.08,WSW,250,8.0,8.0,46,0.00,,,0.00,weatherlink.com 1.10,2013-01-03 17:13:00,
2013-01-03 12:28:00,23.4,6.0,30.07,East,82,2.0,8.0,48,0.00,,,0.00,weatherlink.com 1.10,2013-01-03 17:28:00,
2013-01-03 12:43:00,24.2,7.0,30.06,WSW,255,5.0,8.0,49,0.00,,,0.00,weatherlink.com 1.10,2013-01-03 17:43:00,
2013-01-03 12:58:00,24.8,8.0,30.05,WSW,257,1.0,8.0,49,0.00,,,0.00,weatherlink.com 1.10,2013-01-03 17:58:00,
2013-01-03 13:13:00,25.2,9.0,30.05,WNW,300,4.0,10.0,50,0.00,,,0.00,weatherlink.com 1.10,2013-01-03 18:13:00,
2013-01-03 13:28:00,25.5,9.0,30.05,West,274,1.0,10.0,50,0.00,,,0.00,weatherlink.com 1.10,2013-01-03 18:28:00,
2013-01-03 13:43:00,26.5,10.0,30.04,NW,305,4.0,9.0,49,0.00,,,0.00,weatherlink.com 1.10,2013-01-03 18:43:00,
2013-01-03 13:58:00,26.7,10.0,30.04,West,276,0.0,10.0,50,0.00,,,0.00,weatherlink.com 1.10,2013-01-03 18:58:00,
2013-01-03 14:13:00,27.2,11.0,30.05,West,263,8.0,11.0,50,0.00,,,0.00,weatherlink.com 1.10,2013-01-03 19:13:00,
2013-01-03 14:58:00,27.5,11.0,30.04,West,274,3.0,11.0,51,0.00,,,0.00,weatherlink.com 1.10,2013-01-03 19:58:00,
2013-01-03 15:14:00,27.7,12.0,30.04,WNW,302,3.0,6.0,51,0.00,,,0.00,weatherlink.com 1.10,2013-01-03 20:14:00,
2013-01-03 15:29:00,27.6,11.0,30.04,SW,233,3.0,9.0,51,0.00,,,0.00,weatherlink.com 1.10,2013-01-03 20:29:00,
2013-01-03 15:44:00,27.6,12.0,30.04,West,273,1.0,4.0,52,0.00,,,0.00,weatherlink.com 1.10,2013-01-03 20:44:00,
2013-01-03 15:59:00,27.4,12.0,30.04,WNW,302,1.0,5.0,52,0.00,,,0.00,weatherlink.com 1.10,2013-01-03 20:59:00,
2013-01-03 16:14:00,27.0,11.0,30.04,WNW,287,0.0,2.0,52,0.00,,,0.00,weatherlink.com 1.10,2013-01-03 21:14:00,
2013-01-03 16:29:00,26.4,12.0,30.04,West,266,0.0,1.0,54,0.00,,,0.00,weatherlink.com 1.10,2013-01-03 21:29:00,
2013-01-03 16:59:00,25.0,12.0,30.03,West,281,0.0,0.0,57,0.00,,,0.00,weatherlink.com 1.10,2013-01-03 21:59:00,
2013-01-03 17:14:00,24.2,12.0,30.04,West,281,0.0,0.0,60,0.00,,,0.00,weatherlink.com 1.10,2013-01-03 22:14:00,
2013-01-03 17:29:00,23.4,12.0,30.04,West,281,0.0,0.0,62,0.00,,,0.00,weatherlink.com 1.10,2013-01-03 22:29:00,
2013-01-03 17:44:00,22.7,13.0,30.05,West,281,0.0,0.0,67,0.00,,,0.00,weatherlink.com 1.10,2013-01-03 22:44:00,
2013-01-03 17:59:00,21.9,14.0,30.05,West,281,0.0,0.0,70,0.00,,,0.00,weatherlink.com 1.10,2013-01-03 22:59:00,
2013-01-03 18:14:00,22.9,13.0,30.05,West,281,1.0,4.0,65,0.00,,,0.00,weatherlink.com 1.10,2013-01-03 23:14:00,
2013-01-03 18:29:00,24.2,13.0,30.05,NW,311,2.0,5.0,63,0.00,,,0.00,weatherlink.com 1.10,2013-01-03 23:29:00,
2013-01-03 18:45:00,24.5,13.0,30.06,West,259,0.0,3.0,62,0.00,,,0.00,weatherlink.com 1.10,2013-01-03 23:45:00,
2013-01-03 19:00:00,24.5,13.0,30.05,WSW,255,1.0,2.0,61,0.00,,,0.00,weatherlink.com 1.10,2013-01-04 00:00:00,
2013-01-03 19:15:00,24.2,13.0,30.06,West,275,1.0,2.0,62,0.00,,,0.00,weatherlink.com 1.10,2013-01-04 00:15:00,
2013-01-03 19:30:00,24.5,13.0,30.06,West,276,0.0,3.0,62,0.00,,,0.00,weatherlink.com 1.10,2013-01-04 00:30:00,
2013-01-03 19:45:00,24.2,13.0,30.05,West,273,0.0,1.0,62,0.00,,,0.00,weatherlink.com 1.10,2013-01-04 00:45:00,
2013-01-03 19:59:00,23.3,12.0,30.05,West,271,0.0,1.0,63,0.00,,,0.00,weatherlink.com 1.10,2013-01-04 00:59:00,
2013-01-03 20:15:00,22.5,12.0,30.05,West,271,0.0,0.0,65,0.00,,,0.00,weatherlink.com 1.10,2013-01-04 01:15:00,
2013-01-03 20:30:00,22.1,12.0,30.04,West,270,0.0,1.0,66,0.00,,,0.00,weatherlink.com 1.10,2013-01-04 01:30:00,
2013-01-03 20:45:00,22.2,13.0,30.04,West,263,0.0,1.0,68,0.00,,,0.00,weatherlink.com 1.10,2013-01-04 01:45:00,
2013-01-03 21:00:00,22.5,13.0,30.04,West,263,0.0,1.0,68,0.00,,,0.00,weatherlink.com 1.10,2013-01-04 02:00:00,
2013-01-03 21:15:00,23.7,14.0,30.04,WNW,297,1.0,2.0,66,0.00,,,0.00,weatherlink.com 1.10,2013-01-04 02:15:00,
2013-01-03 21:30:00,24.3,14.0,30.04,West,281,1.0,1.0,65,0.00,,,0.00,weatherlink.com 1.10,2013-01-04 02:30:00,
2013-01-03 21:45:00,24.3,14.0,30.04,West,260,0.0,2.0,65,0.00,,,0.00,weatherlink.com 1.10,2013-01-04 02:45:00,
2013-01-03 22:01:00,24.2,14.0,30.03,WNW,287,1.0,1.0,66,0.00,,,0.00,weatherlink.com 1.10,2013-01-04 03:01:00,
2013-01-03 22:16:00,24.4,15.0,30.03,WSW,246,1.0,2.0,67,0.00,,,0.00,weatherlink.com 1.10,2013-01-04 03:16:00,
2013-01-03 22:31:00,24.7,15.0,30.04,West,273,2.0,3.0,67,0.00,,,0.00,weatherlink.com 1.10,2013-01-04 03:31:00,
2013-01-03 22:46:00,25.6,16.0,30.03,NW,317,1.0,7.0,66,0.00,,,0.00,weatherlink.com 1.10,2013-01-04 03:46:00,
2013-01-03 23:00:00,26.5,16.0,30.03,WSW,258,4.0,7.0,66,0.00,,,0.00,weatherlink.com 1.10,2013-01-04 04:00:00,
2013-01-03 23:16:00,26.9,17.0,30.02,West,267,2.0,8.0,66,0.00,,,0.00,weatherlink.com 1.10,2013-01-04 04:16:00,
2013-01-03 23:31:00,26.9,17.0,30.02,West,267,4.0,5.0,66,0.00,,,0.00,weatherlink.com 1.10,2013-01-04 04:31:00,
2013-01-03 23:46:00,27.0,17.0,30.01,West,273,1.0,4.0,66,0.00,,,0.00,weatherlink.com 1.10,2013-01-04 04:46:00,